COSMOS 1275 DEB, 42152

Orbit data source: Space-Track

COSMOS 1275 DEB, 42152 is space debris in LEO originally from a launch on Thu, 04 Jun 1981 UTC launched from the Plesetsk Missile And Space Complex (PKMTR). Debris objects in space refer to the collection of defunct objects orbiting the Earth. Examples of debris include non-operational satellites, rocket bodies, and fragments generated from explosions, collisions, or faulty payload assembly.

Loading next visibility...
Identifier
42152, 1981-053RQ
Orbit
LEO
Country
Flag of CISCIS
Related business
Manufacturer
Unknown
Mission
Spacecraft
Bus & Motor
Unknown
Mass
Unknown
Launch date (UTC)
1981-06-04 (45 years ago)
Launch vehicle
Unknown
Launch site
Plesetsk Missile And Space Complex (PKMTR)
Object type
Payload
Rocket body
Debris
Shape & HBR
Unknown shape, 0.1 m
Radar Cross Section
Small (<0.1 m²)

Expand to show TLE details & history
Last TLE update: 1 week ago

TLE from 1 week ago
0 COSMOS 1275 DEB
1 42152U 81053RQ  26213.24300719  .00001956  00000-0  12166-2 0  9990
2 42152  83.1181  41.2904 0057825  52.5031 308.1379 14.03665468647192
Epoch: 2026-08-01T05:49Z
TLE epoch observation values (Epoch: 2026-08-01T05:49:55.821Z)
Latitude
0.00004°
Longitude
3.9502°
Altitude
858.297 km
Speed
7.437 km/s
True Right ascension
02h 45m 09s
True Declination
0° 00' 00"
Sunlit
Object was in daylight at epoch
Visualization orbit readout
Latitude
Unknown
Longitude
Unknown
Altitude
Unknown
Speed
Unknown
Apparent Right ascension
Unknown
Apparent Declination
Unknown
Sunlit
N/A
Visualization observer readout
Local Sidereal Time
16:15:09
Azimuth
Unknown
Elevation
Unknown
Doppler factor
Unknown
Orbital elements
Apogee altitude
920.192 km
Perigee altitude
836.272 km
Semi-major axis
7,256.369 km
Eccentricity
0.00578
Inclination
83.1181°
RAAN
41.2904°
Arg. of periapsis
52.5031°
True anomaly
307.6144°
Mean anomaly
308.1379°
Eccentric anomaly
307.87638°
Mean motion
3.51127 °/min
Orbital period
102.53 mins
BSTAR
0.0012166
Loading maneuver chart data...
Computing Atmospheric mass density...
Loading historical data...
Loading historical data...
Loading historical data...
Loading historical data...
Loading historical data...
Loading historical data...
Loading historical data...

Documentation

Showing up to 5 results
|